Regional Weather Roundup
Issued by NWS

Home | Current Version | Previous Version | Graphics & Text | Print | Product List | Glossary On
Versions: 1 2 3 4 5 6 7 8 9 10 11 12 13 14 15 16 17 18 19 20 21 22 23 24 25 26 27 28 29 30 31 32 33 34 35 36 37 38 39 40 41 42 43 44 45 46 47 48 49 50
000
ASUS43 KLOT 262304
RWRIL

ILLINOIS REGIONAL WEATHER ROUNDUP
NATIONAL WEATHER SERVICE CHICAGO/ROMEOVILLE IL
600 PM CDT FRI AUG 26 2016

NOTE: "FAIR" INDICATES FEW OR NO CLOUDS BELOW 12,000 FEET WITH NO
SIGNIFICANT WEATHER AND/OR OBSTRUCTIONS TO VISIBILITY.

* THESE STATIONS ARE NOT UNDER NWS QUALITY CONTROL. THEY ALSO MAY NOT
  REPORT WEATHER SUCH AS PRECIPITATION OR FOG.

ILZ001-002-007-009-015-016-024-270000-
NORTHWEST ILLINOIS

CITY           SKY/WX    TMP DP  RH WIND       PRES   REMARKS
MOLINE         CLOUDY    78  64  61 E8        30.07F HX  80
STERLING*      MOSUNNY   75  66  73 NE6       30.10F
SAVANNA*       MOSUNNY   75  64  67 NE6       30.11S
$$

ILZ003-004-008-010-011-017-018-270000-
NORTH CENTRAL ILLINOIS

CITY           SKY/WX    TMP DP  RH WIND       PRES   REMARKS
ROCKFORD       CLOUDY    76  60  57 E5        30.12F
FREEPORT*      CLOUDY    73  64  75 CALM      30.14S
ROCHELLE*      CLOUDY    76  64  65 NE5       30.11F
$$

ILZ005-006-012>014-019>023-270000-
NORTHEAST ILLINOIS

CITY           SKY/WX    TMP DP  RH WIND       PRES   REMARKS
CHICAGO-OHARE  PTSUNNY   76  60  57 E9        30.11F
CHICAGO-MIDWAY CLOUDY    76  62  62 E8        30.12S
AURORA         CLOUDY    81  65  58 SE7       30.11S HX  83
LANSING*       CLOUDY    74  67  81 NE8       30.12F
JOLIET*        CLOUDY    79  67  68 E7        30.10F HX  81
WAUKEGAN       SUNNY     72  61  68 E9        30.12F
DUPAGE AIRPORT CLOUDY    77  61  57 E12       30.11S
KANKAKEE*      CLOUDY    77  67  71 NE3       30.10F
WHEELING       MOSUNNY   74  60  61 E6        30.13F
MORRIS*        CLOUDY    78  68  70 E3        30.08F HX  80
ROMEOVILLE*    CLOUDY    75  68  78 E7        30.11S
NORTHERLY ISL    N/A     73  64  73 NE6         N/A
$$

LMZ740>746-270000-
SOUTHERN LAKE MICHIGAN

STATION/POSITION SKY/WX   TEMP    WIND        PRES    VSBY  WAVE
                          AIR SEA DIR/SP/G                  HT/PER
                          (F)     (DEG/KT/KT) (MB)    (MI)  (FT/S)
SOUTHERN BUOY              71 76   60/  6/  8 1020.1          1
WILMETTE HARBOR            72 72   90/  8/ 10   N/A           1/ 3
HARRISON CRIB              73      40/ 10/ 10   N/A
BURNHAM HARBOR             73      30/  5/  7   N/A
CALUMET HARBOR             73                 1019.7R
BURNS HARBOR               74      50/ 10/ 13 1020.3S
MICHIGAN CITY              73      10/ 12/ 12   N/A
MICHIGAN CITY 6N           74 75   40/ 10/ 12   N/A           2/ 4
ST. JOSEPH                 73 75   20/ 12/ 14 1019.8S         2/ 4
$$

ILZ025>027-034>036-040-047-049-050-058-095>099-270000-
WEST-CENTRAL ILLINOIS

CITY           SKY/WX    TMP DP  RH WIND       PRES   REMARKS
QUINCY         CLOUDY    79  73  82 E7        30.04S HX  82
GALESBURG*     MOSUNNY   78  67  68 E6        30.08S HX  80
MACOMB*        CLOUDY    77  70  79 E6        30.08S
JACKSONVILLE*  DRIZZLE   79  74  83 E3        30.05S HX  83
PITTSFIELD*    CLOUDY    79  75  86 E3        30.05S HX  83
$$

ILZ028>032-037-038-041>044-048-051>054-059>061-270000-
CENTRAL ILLINOIS

CITY           SKY/WX    TMP DP  RH WIND       PRES   REMARKS
PONTIAC        CLOUDY    77  72  84 NE5       30.10S
BLOOMINGTON    CLOUDY    77  71  82 NE8       30.09S
DECATUR        TSTM      73  71  93 S15       30.11R VSB 3/4
PEORIA         CLOUDY    78  71  79 E10       30.07F HX  80
LACON*         CLOUDY    78  67  69 E5        30.07F HX  80
LINCOLN*       PTSUNNY   80  75  85 NE7       30.07R HX  84
SPRINGFIELD    CLOUDY    82  74  76 NE7       30.06R HX  88
TAYLORVILLE    CLOUDY    72  69  92 E9        30.07S
$$

ILZ033-039-045-046-055>057-062-063-270000-
EAST-CENTRAL ILLINOIS

CITY           SKY/WX    TMP DP  RH WIND       PRES   REMARKS
CHAMPAIGN      RAIN      73  69  87 S8        30.09R
RANTOUL*       CLOUDY    81  76  86 CALM      30.08S HX  87
MATTOON        LGT RAIN  72  70  93 S5        30.06F
PARIS*         LGT RAIN  72  72  98 CALM      30.06F
$$

ILZ079-100>102-270000-
SOUTHWEST ILLINOIS

CITY           SKY/WX    TMP DP  RH WIND       PRES   REMARKS
ALTON          CLOUDY    77  70  78 SE9       30.04S
BELLEVILLE     CLOUDY    79  68  70 NW6       30.06R THUNDER HX  81
CAHOKIA*       CLOUDY    83  72  69 E9        30.03R HX  88
SPARTA*        SUNNY     83  74  73 E5        30.06R HX  89
$$

ILZ064>066-069>071-074>076-080>082-084>086-088>090-092>094-270000-
SOUTH-CENTRAL ILLINOIS

CITY           SKY/WX    TMP DP  RH WIND       PRES   REMARKS
CARBONDALE     CLOUDY    83  75  77 CALM      30.05R HX  90
EFFINGHAM*     LGT RAIN  73  73 100 CALM      30.08S
MARION         PTSUNNY   86  75  70 E6        30.07R HX  95
MT. VERNON     MOSUNNY   82  70  65 E3        30.08R HX  86
CENTRALIA*     MOSUNNY   82  75  81 E3        30.06R HX  88
SALEM*         MOSUNNY   83  72  70 CALM      30.07R HX  88
METROPOLIS*    LGT RAIN  81  76  82 CALM      30.07R HX  88
$$

ILZ067-068-072-073-078-083-087-091-270000-
SOUTHEAST ILLINOIS

CITY           SKY/WX    TMP DP  RH WIND       PRES   REMARKS
LAWRENCEVILLE  CLOUDY    85  76  74 N9        30.05F HX  94
FLORA*         CLOUDY    82  73  74 CALM      30.06R HX  86
FAIRFIELD*     MOSUNNY   80  72  77 CALM      30.06R HX  83
HARRISBURG*    CLOUDY    82  74  78 CALM      30.07R HX  88
ROBINSON*      CLOUDY    78  72  81 NE7       30.07S HX  80
CARMI*         PTSUNNY   80  74  81 NW5       30.06R HX  84
$$

ABBREVIATIONS USED IN REMARKS
   TC - TEMPERATURE IN CELSIUS
  WCI - WIND CHILL INDEX
   HX - HEAT INDEX
  VSB - VISIBILITY
$$





USA.gov is the U.S. government's official web portal to all federal, state and local government web resources and services.